Location: Saint Louis
(38.6272°N, 90.1978°W)
Time: 01:18:07
(UTC-05:00)

ISS - Pass Details

Date: 18 May 2013
Orbit: 402 x 403 km, 51.6° (Epoch: 30 June)

Event Time Altitude Azimuth Distance (km) Brightness Sun altitude
Exits shadow 03:13:41 23° 100° (E) 967 -1.2 -23.6°
Drops below altitude 10° 03:15:30 10° 73° (ENE) 1,509 0.2 -23.4°
Enters shadow 04:10:45 -71° 233° (SW) 12,502 4.1 -16.2°
Maximum altitude 04:49:28 32° 329° (NNW) 751 -1.9 -10.3°
